[[{"header":{"parameterUnit":"m.s-1","parameterCategory":1,"la1":30.2991,"la2":30.254,"lo1":-89.0895,"lo2":-89.0444,"dy":0.0017,"dx":0.0017,"nx":28,"ny":28,"refTime":"2025-09-12T03:00:00:Z","depth":0,"parameterNumber":2,"parameterNumberName":"U-component_of_WINDS"},"data":[0,0,0,0,0,0,0,0,0,0,0,0,0,0,0,0,0,0,0,0,0,0,0,0,0,0,0,0,0,0,0,0,0,0,0,0,0,0,0,0,0,0,0,0,0,0,0,0,0,0,0,0,0,0,0,0,0,0,-1.3507,-1.3506,0,-1.3437,-1.3436,-1.3435,-1.3389,-1.3389,-1.3388,-1.3388,-1.3315,-1.3313,-1.3311,0,0,0,0,0,0,0,0,0,0,0,0,0,-1.3598,-1.3597,-1.3507,-1.3506,-1.3505,-1.3437,-1.3436,-1.3435,-1.3389,-1.3389,-1.3388,-1.3388,-1.3315,-1.3313,-1.3311,0,0,0,0,0,0,0,0,0,0,0,0,0,-1.3547,-1.3597,-1.3507,-1.3474,-1.347,-1.3437,-1.3436,-1.3435,-1.3389,-1.3389,-1.3388,-1.3388,-1.3316,-1.3313,-1.3311,-1.3305,0,0,-1.3303,-1.3302,0,0,0,0,0,0,0,0,-1.355,-1.3543,-1.348,-1.3476,-1.3472,-1.3421,-1.3441,-1.3391,-1.3389,-1.342,-1.3388,-1.3388,-1.335,-1.3345,-1.3333,-1.3301,-1.3298,-1.3303,-1.3301,-1.33,-1.33,0,0,0,0,0,0,0,-1.3553,-1.3546,-1.3479,-1.3479,-1.3474,-1.3462,-1.3454,-1.3432,-1.3388,-1.3417,-1.3414,-1.3406,-1.3348,-1.3335,-1.3331,-1.3297,-1.3303,-1.3301,-1.3299,-1.3298,-1.3258,-1.3258,0,0,0,0,0,0,-1.3562,-1.3549,-1.3481,-1.3477,-1.3511,-1.3461,-1.3452,-1.3438,-1.3389,-1.3381,-1.3407,-1.3404,-1.334,-1.3334,-1.3328,-1.3319,-1.33,-1.3298,-1.3297,-1.3258,-1.3258,-1.3259,0,0,0,0,0,0,-1.3565,-1.3557,-1.3484,-1.3512,-1.3502,-1.346,-1.3444,-1.3437,-1.3424,-1.3381,-1.3372,-1.3402,-1.3339,-1.3331,-1.3311,-1.3315,-1.3297,-1.3295,-1.3257,-1.3258,-1.3258,-1.3299,0,0,0,0,0,0,-1.3567,-1.3558,-1.3555,-1.3513,-1.3501,-1.3469,-1.3445,-1.3436,-1.342,-1.3416,-1.3374,-1.3366,-1.3338,-1.3315,-1.3309,-1.3312,-1.3293,-1.3257,-1.3257,-1.3258,-1.3297,-1.3301,-1.3304,0,0,0,0,0,-1.3571,-1.3569,-1.3555,-1.3547,-1.3497,-1.3469,-1.3462,-1.3431,-1.3421,-1.3418,-1.339,-1.3368,-1.3316,-1.3314,-1.3306,-1.3308,-1.3256,-1.3257,-1.3258,-1.3296,-1.33,-1.3304,0,0,0,0,0,0,-1.3612,-1.3562,-1.3547,-1.3531,-1.3505,-1.3462,-1.3457,-1.3437,-1.3412,-1.341,-1.3371,-1.3362,-1.3346,-1.3324,-1.3323,-1.33,-1.3283,-1.3283,-1.3315,-1.3319,-1.3322,-1.3328,-1.3291,0,0,0,0,0,-1.3619,-1.3602,-1.3559,-1.3549,-1.3537,-1.3499,-1.3486,-1.3464,-1.3435,-1.3424,-1.3394,-1.3367,-1.3344,-1.333,-1.3307,-1.3294,-1.3284,-1.3292,-1.3295,-1.3298,-1.3299,-1.3292,-1.3295,-1.3262,-1.3262,-1.3262,0,0,-1.3634,-1.3604,-1.3596,-1.3557,-1.3534,-1.3516,-1.349,-1.3472,-1.3459,-1.342,-1.34,-1.3378,-1.3344,-1.3328,-1.332,-1.331,-1.3306,-1.33,-1.3302,-1.3301,-1.3293,-1.3296,-1.3299,-1.3263,-1.3262,-1.3262,0,0,-1.3652,-1.3628,-1.3617,-1.3595,-1.3562,-1.3537,-1.3535,-1.3495,-1.3479,-1.3458,-1.3429,-1.3412,-1.3374,-1.3352,-1.3336,-1.3347,-1.3326,-1.334,-1.3359,-1.3353,-1.3356,-1.3358,-1.3363,-1.3365,-1.3341,-1.3341,-1.3341,0,-1.3674,-1.3647,-1.3614,-1.3599,-1.3583,-1.3549,-1.3538,-1.3518,-1.3478,-1.3468,-1.3458,-1.3411,-1.3385,-1.3364,-1.3367,-1.3355,-1.3351,-1.3345,-1.3358,-1.336,-1.3361,-1.3366,-1.3368,-1.3343,-1.3343,-1.3342,-1.3342,0,-1.3677,-1.3659,-1.3654,-1.3618,-1.3602,-1.3589,-1.3554,-1.3541,-1.3521,-1.3497,-1.3477,-1.3446,-1.3417,-1.341,-1.3389,-1.3386,-1.3382,-1.3366,-1.3348,-1.3367,-1.3371,-1.3372,-1.3346,-1.3345,-1.3344,-1.3344,0,0,-1.3718,-1.3665,-1.3664,-1.3648,-1.3609,-1.3594,-1.358,-1.3552,-1.3543,-1.3516,-1.3504,-1.3473,-1.3459,-1.344,-1.3417,-1.3411,-1.3424,-1.3396,-1.3394,-1.3403,-1.342,-1.3434,-1.3437,-1.341,-1.341,-1.341,-1.3424,0,-1.3731,-1.3705,-1.3676,-1.3659,-1.3643,-1.361,-1.3598,-1.3573,-1.3551,-1.3533,-1.3508,-1.3488,-1.3469,-1.3458,-1.3451,-1.3424,-1.3427,-1.3422,-1.3398,-1.3398,-1.3409,-1.3438,-1.3452,-1.3466,-1.3425,-1.3425,-1.3425,0,-1.3742,-1.372,-1.3702,-1.3666,-1.3658,-1.3648,-1.3621,-1.3604,-1.3575,-1.356,-1.354,-1.3516,-1.3499,-1.3484,-1.3461,-1.3459,-1.3447,-1.3433,-1.3432,-1.343,-1.3413,-1.3437,-1.347,-1.3473,-1.3427,-1.3427,-1.3427,0,-1.3776,-1.3741,-1.3726,-1.3713,-1.367,-1.3664,-1.3646,-1.3616,-1.3602,-1.3578,-1.3569,-1.3543,-1.3529,-1.351,-1.348,-1.3471,-1.3461,-1.3442,-1.3448,-1.3449,-1.3448,-1.3448,-1.348,-1.3439,-1.3438,-1.3438,-1.3438,0,-1.3794,-1.3785,-1.3741,-1.3732,-1.3721,-1.3688,-1.3678,-1.3656,-1.3631,-1.3617,-1.3587,-1.3575,-1.3535,-1.3518,-1.3494,-1.348,-1.3473,-1.3461,-1.3455,-1.3464,-1.3466,-1.3456,-1.3455,-1.3439,-1.3439,-1.3439,-1.3439,0,-1.383,-1.38,-1.3782,-1.3744,-1.3734,-1.3728,-1.3695,-1.3685,-1.3661,-1.3645,-1.3639,-1.3602,-1.3581,-1.3549,-1.3517,-1.3501,-1.3492,-1.3481,-1.3502,-1.3498,-1.3506,-1.3507,-1.3534,-1.3536,-1.3493,-1.3493,-1.3493,0,-1.3844,-1.3837,-1.3798,-1.3788,-1.3771,-1.3754,-1.3739,-1.3706,-1.3693,-1.366,-1.3654,-1.3631,-1.3611,-1.3579,-1.3549,-1.3525,-1.3514,-1.3526,-1.3511,-1.3521,-1.3516,-1.3518,-1.3517,-1.3529,-1.353,-1.3531,-1.3531,0,-1.3873,-1.3859,-1.384,-1.3817,-1.3801,-1.3781,-1.3759,-1.3751,-1.3713,-1.37,-1.3678,-1.3663,-1.3632,-1.361,-1.3582,-1.3563,-1.3541,-1.3536,-1.3536,-1.3546,-1.356,-1.3554,-1.3513,-1.3536,-1.3535,-1.3535,-1.3535,-1.3534,-1.3899,-1.3892,-1.3864,-1.3844,-1.3825,-1.3805,-1.3795,-1.3771,-1.3753,-1.3726,-1.3707,-1.3687,-1.3659,-1.362,-1.3603,-1.3587,-1.3577,-1.3577,-1.3577,-1.3578,-1.3582,-1.3562,-1.3581,-1.3581,-1.3581,-1.3581,-1.3581,0,-1.3927,-1.3908,-1.3891,-1.3862,-1.3847,-1.3828,-1.3803,-1.3792,-1.3775,-1.3751,-1.3732,-1.3709,-1.3687,-1.3657,-1.3633,-1.3626,-1.3616,-1.3621,-1.3622,-1.3618,-1.3591,-1.3594,-1.363,-1.363,-1.363,-1.363,-1.363,-1.363,-1.394,-1.3927,-1.391,-1.3888,-1.3868,-1.3849,-1.3837,-1.3819,-1.38,-1.3776,-1.3758,-1.3738,-1.3712,-1.3686,-1.3666,-1.3658,-1.3651,-1.366,-1.3649,-1.3624,-1.362,-1.3615,-1.3618,-1.3659,-1.3659,-1.3677,-1.3677,-1.3677]},{"header":{"parameterUnit":"m.s-1","parameterCategory":1,"la1":30.2991,"la2":30.254,"lo1":-89.0895,"lo2":-89.0444,"dy":0.0017,"dx":0.0017,"nx":28,"ny":28,"refTime":"2025-09-12T03:00:00:Z","depth":0,"parameterNumber":3,"parameterNumberName":"V-component_of_WINDS"},"data":[0,0,0,0,0,0,0,0,0,0,0,0,0,0,0,0,0,0,0,0,0,0,0,0,0,0,0,0,0,0,0,0,0,0,0,0,0,0,0,0,0,0,0,0,0,0,0,0,0,0,0,0,0,0,0,0,0,0,-0.1148,-0.1147,0,-0.1067,-0.1066,-0.1065,-0.1079,-0.108,-0.1082,-0.1083,-0.1001,-0.0997,-0.0994,0,0,0,0,0,0,0,0,0,0,0,0,0,-0.1317,-0.1314,-0.1148,-0.1147,-0.1146,-0.1067,-0.1066,-0.1065,-0.1079,-0.108,-0.1082,-0.1084,-0.1002,-0.0998,-0.0994,0,0,0,0,0,0,0,0,0,0,0,0,0,-0.1241,-0.1313,-0.1148,-0.1143,-0.1142,-0.1067,-0.1066,-0.1065,-0.1078,-0.108,-0.1082,-0.1084,-0.1003,-0.0998,-0.0993,-0.0918,0,0,-0.0977,-0.0975,0,0,0,0,0,0,0,0,-0.1245,-0.1234,-0.1145,-0.1144,-0.1142,-0.1085,-0.1096,-0.1016,-0.1078,-0.1102,-0.1083,-0.1085,-0.1027,-0.102,-0.1,-0.0915,-0.0911,-0.0977,-0.0973,-0.0971,-0.097,0,0,0,0,0,0,0,-0.125,-0.1238,-0.1116,-0.1144,-0.1142,-0.1146,-0.1137,-0.108,-0.1054,-0.11,-0.1101,-0.1091,-0.1027,-0.1005,-0.0999,-0.091,-0.0977,-0.0972,-0.0969,-0.0967,-0.0763,-0.0761,0,0,0,0,0,0,-0.1257,-0.1242,-0.1119,-0.1114,-0.12,-0.1141,-0.1132,-0.1101,-0.1055,-0.105,-0.109,-0.1092,-0.1013,-0.1005,-0.0996,-0.0909,-0.0971,-0.0966,-0.0963,-0.0766,-0.0763,-0.076,0,0,0,0,0,0,-0.126,-0.1246,-0.1122,-0.1178,-0.1163,-0.1136,-0.1102,-0.1099,-0.1077,-0.1047,-0.1042,-0.1073,-0.1015,-0.1003,-0.0939,-0.0906,-0.0964,-0.0959,-0.0768,-0.0765,-0.0762,-0.0732,0,0,0,0,0,0,-0.1265,-0.1247,-0.1217,-0.1177,-0.116,-0.1065,-0.11,-0.1095,-0.1068,-0.1071,-0.1029,-0.1024,-0.1015,-0.0946,-0.0933,-0.09,-0.0955,-0.0771,-0.0767,-0.0763,-0.0736,-0.0728,-0.0721,0,0,0,0,0,-0.1271,-0.1211,-0.1216,-0.1201,-0.1122,-0.1063,-0.1053,-0.1044,-0.1065,-0.1036,-0.1017,-0.1026,-0.0911,-0.094,-0.0925,-0.0889,-0.0773,-0.0768,-0.0763,-0.0739,-0.073,-0.0722,0,0,0,0,0,0,-0.1248,-0.1206,-0.121,-0.1136,-0.1103,-0.1066,-0.1029,-0.1033,-0.0994,-0.0998,-0.0988,-0.0979,-0.0914,-0.0895,-0.0927,-0.0817,-0.0845,-0.0837,-0.0832,-0.0823,-0.0816,-0.0823,-0.0951,0,0,0,0,0,-0.1234,-0.1189,-0.1155,-0.1093,-0.1076,-0.1055,-0.1029,-0.1025,-0.099,-0.0977,-0.0952,-0.0919,-0.0876,-0.0848,-0.0806,-0.0732,-0.0726,-0.0701,-0.0694,-0.0688,-0.0682,-0.0646,-0.0635,-0.0744,-0.0744,-0.0744,0,0,-0.1205,-0.1177,-0.1149,-0.1087,-0.1061,-0.1017,-0.1043,-0.0994,-0.0961,-0.0969,-0.0908,-0.0889,-0.0851,-0.0783,-0.0752,-0.0765,-0.065,-0.0682,-0.0677,-0.0674,-0.0639,-0.0629,-0.062,-0.074,-0.0741,-0.0741,0,0,-0.113,-0.1103,-0.105,-0.1024,-0.0985,-0.0972,-0.0959,-0.0921,-0.0909,-0.0847,-0.0854,-0.0814,-0.0739,-0.0714,-0.0691,-0.0609,-0.0617,-0.0595,-0.0558,-0.0523,-0.0515,-0.0507,-0.0481,-0.0472,-0.0589,-0.0588,-0.0588,0,-0.11,-0.1032,-0.1022,-0.0973,-0.0947,-0.0953,-0.0901,-0.0875,-0.0824,-0.0807,-0.0823,-0.0731,-0.0706,-0.0633,-0.0614,-0.0593,-0.0581,-0.0601,-0.0516,-0.0509,-0.0502,-0.0477,-0.0467,-0.0586,-0.0587,-0.0587,-0.0587,0,-0.0998,-0.0951,-0.0913,-0.0865,-0.0834,-0.0784,-0.0768,-0.0738,-0.0737,-0.0723,-0.0662,-0.0631,-0.0586,-0.0568,-0.0565,-0.0496,-0.0506,-0.0518,-0.0548,-0.0489,-0.0467,-0.0457,-0.0583,-0.0584,-0.0585,-0.0585,0,0,-0.0906,-0.0855,-0.0842,-0.0822,-0.078,-0.0744,-0.0694,-0.065,-0.0627,-0.0591,-0.0552,-0.0489,-0.0502,-0.0476,-0.047,-0.0439,-0.0381,-0.0456,-0.0455,-0.0446,-0.0307,-0.03,-0.0289,-0.0385,-0.0383,-0.0381,-0.0311,0,-0.0831,-0.0744,-0.0735,-0.0658,-0.0616,-0.0622,-0.0579,-0.055,-0.0535,-0.0499,-0.0483,-0.044,-0.0458,-0.0443,-0.0412,-0.0394,-0.0353,-0.0399,-0.035,-0.0349,-0.0363,-0.0276,-0.0268,-0.0203,-0.0302,-0.03,-0.0299,0,-0.073,-0.0694,-0.0613,-0.0581,-0.0563,-0.0525,-0.0485,-0.0449,-0.0416,-0.0408,-0.0381,-0.038,-0.0331,-0.036,-0.0295,-0.0326,-0.0305,-0.0294,-0.0291,-0.0289,-0.0322,-0.0275,-0.0182,-0.0173,-0.0284,-0.0285,-0.0286,0,-0.0677,-0.0607,-0.0551,-0.0533,-0.0492,-0.0466,-0.0448,-0.0417,-0.0392,-0.0357,-0.0342,-0.0301,-0.028,-0.0249,-0.0239,-0.026,-0.0175,-0.0202,-0.0169,-0.0169,-0.0153,-0.0155,-0.0059,-0.0134,-0.0134,-0.0134,-0.0135,0,-0.0595,-0.0546,-0.0527,-0.0493,-0.0439,-0.043,-0.0377,-0.036,-0.0333,-0.0297,-0.0298,-0.0264,-0.0251,-0.0215,-0.0207,-0.0156,-0.0145,-0.0139,-0.0138,-0.0141,-0.0142,-0.0129,-0.0135,-0.0132,-0.0132,-0.0133,-0.0133,0,-0.0527,-0.0512,-0.0451,-0.0418,-0.0409,-0.0371,-0.0343,-0.0311,-0.0298,-0.0252,-0.0241,-0.022,-0.0178,-0.0164,-0.0113,-0.0107,-0.0049,-0.005,-0.0061,-0.0061,-0.003,-0.0035,0.0075,0.0088,0.0007,0.0007,0.0008,0,-0.0477,-0.044,-0.0404,-0.038,-0.0361,-0.0322,-0.0297,-0.0286,-0.0261,-0.0222,-0.0195,-0.0154,-0.0121,-0.0055,-0.0036,0.0003,0.0,0.0036,0.0006,0.0001,-0.0003,-0.0007,-0.0005,0.0041,0.0042,0.0042,0.0043,0,-0.0392,-0.0387,-0.0351,-0.0313,-0.0283,-0.0253,-0.0223,-0.0203,-0.0189,-0.016,-0.0118,-0.0092,-0.0041,-0.0002,0.0037,0.0055,0.005,0.0052,0.0061,0.0057,0.0048,0.005,-0.0049,0.0049,0.0049,0.0048,0.0048,0.0048,-0.0334,-0.0303,-0.0273,-0.0234,-0.0211,-0.0184,-0.0153,-0.0136,-0.0101,-0.006,-0.0055,-0.0011,0.0018,0.0069,0.0089,0.0122,0.0112,0.0126,0.0129,0.0132,0.0132,0.0045,0.013,0.013,0.013,0.013,0.013,0,-0.0252,-0.0234,-0.0198,-0.0157,-0.0127,-0.0133,-0.0101,-0.0076,-0.0037,-0.0009,0.0023,0.007,0.0108,0.0129,0.0167,0.019,0.0188,0.0199,0.0196,0.0199,0.0141,0.0128,0.0199,0.0199,0.0199,0.0199,0.0199,0.0199,-0.0206,-0.0155,-0.0147,-0.0085,-0.0067,-0.0024,-0.0006,0.0018,0.004,0.0092,0.0123,0.0137,0.0161,0.02,0.0234,0.0239,0.0252,0.0263,0.0267,0.0211,0.0204,0.0197,0.0184,0.0266,0.0266,0.0322,0.0322,0.0322]}]]